Location: ???????
(55.4362°N, 38.1183°E)
Time: 09:16:39
(UTC+00:00)

Cosmos 372 Rocket - Pass Details

Date: 20 October 2021
Orbit: 738 x 768 km, 74.1° (Epoch: 28 November)

Event Time Altitude Azimuth Distance (km) Brightness Sun altitude
Rises 17:16:35 0° 277° (W) 3,179 8.4 -26.1°
Reaches altitude 10° 17:20:06 10° 302° (WNW) 2,257 7.4 -26.5°
Maximum altitude 17:22:48 14° 334° (NNW) 1,980 6.7 -26.9°
Drops below altitude 10° 17:25:31 10° 6° (N) 2,261 6.6 -27.2°
Enters shadow 17:28:02 - 26° (NNE) 2,880 7.0 -27.6°
